Terug naar catalogus

FENGYUN 1C DEB

ActiefSSO
NORAD 32464·DEBRIS·🇨🇳 China

Gelanceerd May 10, 1999 vanaf Taiyuan Satellite Launch Center

Loading…

Volgende Passages (komende 24 uur)

TLE

VerouderendSource: Space-Track

Epoch: Sep 9, 2026, 06:33 UTC

1 32464U 99025DCC 26252.27323448  .00012897  00000-0  91931-3 0  9997
2 32464  97.3435 265.4494 0098014  40.9981 319.8559 15.00827163648404

Volg FENGYUN 1C DEB in realtime met AllMySat

Download on the App Store